This demonstration page uses our WeatherBlox Daily Observations layout. Learn more.

39.01783, -85.05884

Hourly Observations for December 7, 2018

Temp ( °F °C ) Dew Point ( °F °C ) Humidity (%) Winds ( mph kmh ) Pressure ( in mb ) Visibility ( mi km ) Precip ( " mm )
12:36 am 00:36 Partly Cloudy 29 -1.7 23 -5 78 78 N 7 11 30.45 1031 8 12.874752 0 0
12:52 am 00:52 Partly Cloudy 29 -1.7 22 -5.6 75 75 N 9 15 30.39 1029 9 14.484096 0 0
1:52 am 01:52 Clear 27 -2.8 22 -5.6 81 81 NNW 8 13 30.39 1029 8 12.874752 0 0
2:52 am 02:52 Clear 25 -3.9 21 -6.1 85 85 NNW 7 11 30.42 1030 7 11.265408 0 0
3:52 am 03:52 Clear 23 -5 19 -7.2 85 85 N 6 9 30.42 1030 7 11.265408 0 0
4:52 am 04:52 Mostly Clear with Mist and Fog 24 -4.4 20 -6.7 84 84 N 3 6 30.42 1030 6 9.656064 0 0
5:52 am 05:52 Mostly Clear with Mist and Fog 22 -5.6 19 -7.2 89 89 N 5 7 30.45 1031 6 9.656064 0 0
6:52 am 06:52 Clear 24 -4.4 19 -7.2 81 81 VRB 3 6 30.48 1032 9 14.484096 0 0
7:52 am 07:52 Mostly Sunny 21 -6.1 17 -8.3 85 85 Calm 30.48 1032 7 11.265408 0 0
8:52 am 08:52 Mostly Sunny 25 -3.9 20 -6.7 81 81 N 5 7 30.5 1033 7 11.265408 0 0
9:52 am 09:52 Mostly Sunny 29 -1.7 19 -7.2 66 66 VRB 3 6 30.53 1034 10 16.09344 0 0
10:52 am 10:52 Partly Cloudy 30 -1.1 20 -6.7 66 66 E 3 6 30.53 1034 10 16.09344 0 0
11:52 am 11:52 Partly Cloudy 32 0 20 -6.7 61 61 NNE 3 6 30.5 1033 10 16.09344 0 0
12:52 pm 12:52 Partly Cloudy 34 1.1 20 -6.7 56 56 NNW 3 6 30.48 1032 10 16.09344 0 0
1:52 pm 13:52 Partly Cloudy 36 2.2 19 -7.2 50 50 NNW 5 7 30.45 1031 10 16.09344 0 0
2:52 pm 14:52 Partly Cloudy 37 2.8 18 -7.8 46 46 Calm 30.45 1031 10 16.09344 0 0
3:52 pm 15:52 Partly Cloudy 36 2.2 16 -8.9 44 44 N 8 13 30.45 1031 10 16.09344 0 0
4:52 pm 16:52 Partly Cloudy 34 1.1 17 -8.3 50 50 N 5 7 30.45 1031 10 16.09344 0 0
5:52 pm 17:52 Partly Cloudy 33 0.6 16 -8.9 49 49 Calm 30.45 1031 10 16.09344 0 0
6:52 pm 18:52 Partly Cloudy 30 -1.1 17 -8.3 58 58 NNE 3 6 30.45 1031 10 16.09344 0 0
7:52 pm 19:52 Mostly Clear 29 -1.7 17 -8.3 61 61 N 5 7 30.48 1032 10 16.09344 0 0
8:52 pm 20:52 Partly Cloudy 27 -2.8 17 -8.3 66 66 N 5 7 30.48 1032 10 16.09344 0 0
9:52 pm 21:52 Partly Cloudy 27 -2.8 17 -8.3 66 66 NNW 9 15 30.48 1032 10 16.09344 0 0
10:52 pm 22:52 Partly Cloudy 27 -2.8 18 -7.8 69 69 Calm 30.48 1032 10 16.09344 0 0
11:52 pm 23:52 Clear 26 -3.3 18 -7.8 71 71 NW 6 9 30.48 1032 10 16.09344 0 0

Powered by AerisWeather